WD6AWP Weather Reports


Display with metric or nautical units.
time (UTC)temp
F
wind
direction
speed
MPH
gust
MPH
rain 1hr
in
rain 24hr
in
rain mn
in
humidity
%
barometer
mb
20220519120051 60 144 0.0 0.0 0.00 0.00 0.00 88 1012.8
20220519114555 60 133 0.0 2.0 0.00 0.00 0.00 88 1012.9
20220519113052 60 122 0.0 3.0 0.00 0.00 0.00 88 1013.0
20220519111548 60 149 0.0 4.0 0.00 0.00 0.00 88 1013.1
20220519110047 60 146 0.0 4.0 0.00 0.00 0.00 88 1013.1
20220519104551 60 130 0.0 0.0 0.00 0.00 0.00 87 1013.1
20220519103053 60 146 0.0 3.0 0.00 0.00 0.00 87 1013.1
20220519101549 60 142 1.0 9.0 0.00 0.00 0.00 86 1013.1
20220519100044 60 188 0.0 5.0 0.00 0.00 0.00 87 1013.2
20220519094542 60 181 0.0 3.0 0.00 0.00 0.00 86 1013.2
20220519093044 61 183 0.0 0.0 0.00 0.00 0.00 86 1013.2
20220519091540 61 166 0.0 3.0 0.00 0.00 0.00 86 1013.2
20220519090049 61 177 0.0 0.0 0.00 0.00 0.00 86 1013.4
20220519084537 61 180 0.0 1.0 0.00 0.00 0.00 85 1013.7
20220519083045 61 188 0.0 0.0 0.00 0.00 0.00 85 1013.8
20220519081534 61 190 0.0 0.0 0.00 0.00 0.00 85 1014.1
20220519080032 61 190 0.0 3.0 0.00 0.00 0.00 85 1014.2
20220519074529 61 190 0.0 0.0 0.00 0.00 0.00 85 1014.3
20220519073028 61 197 0.0 5.0 0.00 0.00 0.00 85 1014.4
20220519071525 61 192 0.0 0.0 0.00 0.00 0.00 85 1014.5
20220519070023 61 169 1.0 6.0 0.00 0.00 0.00 85 1014.6
20220519064523 61 182 0.0 4.0 0.00 0.00 0.00 85 1014.7
20220519063022 61 193 0.0 6.0 0.00 0.00 0.00 85 1014.7
20220519061543 61 184 0.0 2.0 0.00 0.00 0.00 84 1014.9
20220519060022 61 169 0.0 3.0 0.00 0.00 0.00 84 1015.0
20220519054525 61 177 0.0 2.0 0.00 0.00 0.00 84 1014.9
20220519053034 61 192 0.0 4.0 0.00 0.00 0.00 84 1015.0
20220519051530 61 180 0.0 5.0 0.00 0.00 0.00 84 1014.9
20220519050020 62 178 0.0 4.0 0.00 0.00 0.00 84 1014.8
20220519044533 62 203 0.0 5.0 0.00 0.00 0.00 85 1014.7
20220519043037 62 204 0.0 6.0 0.00 0.00 0.00 85 1014.6
20220519041532 62 180 0.0 7.0 0.00 0.00 0.00 84 1014.5
20220519040018 62 209 0.0 6.0 0.00 0.00 0.00 85 1014.4
20220519034520 62 211 1.0 8.0 0.00 0.00 0.00 85 1014.3
20220519033033 62 213 0.0 5.0 0.00 0.00 0.00 85 1014.3
20220519031520 62 178 0.0 6.0 0.00 0.00 0.00 85 1014.1
20220519030016 62 217 2.0 7.0 0.00 0.00 0.00 84 1014.0
20220519024515 62 191 2.0 7.0 0.00 0.00 0.00 83 1014.0
20220519023019 62 198 0.0 6.0 0.00 0.00 0.00 82 1013.9
20220519021514 63 200 1.0 6.0 0.00 0.00 0.00 81 1013.8
20220519020013 63 210 0.0 8.0 0.00 0.00 0.00 80 1013.8
20220519014512 64 216 1.0 8.0 0.00 0.00 0.00 79 1013.8
20220519013012 64 228 2.0 8.0 0.00 0.00 0.00 77 1013.8
20220519011510 65 236 1.0 8.0 0.00 0.00 0.00 76 1013.8
20220519010013 66 214 2.0 9.0 0.00 0.00 0.00 74 1013.7
20220519004529 67 216 2.0 10.0 0.00 0.00 0.00 73 1013.7
20220519003008 68 214 2.0 10.0 0.00 0.00 0.00 72 1013.9
20220519001507 68 223 4.0 11.0 0.00 0.00 0.00 71 1013.9
20220519000013 68 248 2.0 7.0 0.00 0.00 0.00 71 1013.9
20220518234507 69 259 5.0 10.0 0.00 0.00 0.00 70 1013.8
20220518233009 69 290 3.0 11.0 0.00 0.00 0.00 70 1013.9
20220518231506 69 219 5.0 12.0 0.00 0.00 0.00 69 1014.0
20220518230014 69 293 6.0 13.0 0.00 0.00 0.00 69 1014.0
20220518224501 69 269 6.0 14.0 0.00 0.00 0.00 70 1014.3
20220518223100 69 218 4.0 15.0 0.00 0.00 0.00 70 1014.4
20220518221633 70 198 3.0 11.0 0.00 0.00 0.00 70 1014.5
20220518220057 70 240 3.0 10.0 0.00 0.00 0.00 70 1014.7
20220518214555 70 244 4.0 14.0 0.00 0.00 0.00 69 1014.8
20220518213054 69 207 1.0 12.0 0.00 0.00 0.00 70 1015.0
20220518211553 70 210 3.0 10.0 0.00 0.00 0.00 70 1015.2
20220518210052 69 227 4.0 11.0 0.00 0.00 0.00 70 1015.2
20220518204608 70 279 3.0 10.0 0.00 0.00 0.00 70 1015.4
20220518203049 69 229 3.0 11.0 0.00 0.00 0.00 70 1015.5
20220518201548 69 225 4.0 9.0 0.00 0.00 0.00 70 1015.6
20220518200047 69 239 3.0 8.0 0.00 0.00 0.00 70 1015.8
20220518194545 70 217 3.0 10.0 0.00 0.00 0.00 69 1015.9
20220518193043 69 201 3.0 10.0 0.00 0.00 0.00 71 1016.0
20220518191542 69 209 3.0 10.0 0.00 0.00 0.00 71 1016.1
20220518190038 68 249 2.0 10.0 0.00 0.00 0.00 72 1016.2
20220518184534 67 229 4.0 8.0 0.00 0.00 0.00 73 1016.3
20220518183039 66 232 3.0 7.0 0.00 0.00 0.00 75 1016.3
20220518181533 66 192 1.0 10.0 0.00 0.00 0.00 76 1016.3
20220518180030 66 219 1.0 7.0 0.00 0.00 0.00 76 1016.3
20220518174528 65 186 2.0 6.0 0.00 0.00 0.00 77 1016.3
20220518173028 64 186 1.0 6.0 0.00 0.00 0.00 78 1016.2
20220518171522 64 178 2.0 6.0 0.00 0.00 0.00 79 1016.4
20220518170020 63 198 0.0 6.0 0.00 0.00 0.00 81 1016.3
20220518164528 63 196 0.0 4.0 0.00 0.00 0.00 82 1016.4
20220518163022 63 150 0.0 3.0 0.00 0.00 0.00 81 1016.5
20220518161521 62 146 0.0 4.0 0.00 0.00 0.00 82 1016.5
20220518160016 62 121 0.0 3.0 0.00 0.00 0.00 82 1016.5
20220518154513 62 104 0.0 0.0 0.00 0.00 0.00 82 1016.4
20220518153013 62 103 0.0 0.0 0.00 0.00 0.00 82 1016.4
20220518151513 61 104 0.0 0.0 0.00 0.00 0.00 83 1016.4
20220518150011 61 103 0.0 0.0 0.00 0.00 0.00 83 1016.4
20220518144518 61 107 0.0 4.0 0.00 0.00 0.00 83 1016.3
20220518143008 61 128 0.0 0.0 0.00 0.00 0.00 84 1016.2
20220518141512 61 128 0.0 1.0 0.00 0.00 0.00 84 1016.1
20220518140007 61 126 0.0 5.0 0.00 0.00 0.00 84 1016.0
20220518134505 60 126 0.0 0.0 0.00 0.00 0.00 84 1015.8
20220518133004 60 126 0.0 0.0 0.00 0.00 0.00 84 1015.7
20220518131502 60 126 0.0 1.0 0.00 0.00 0.00 84 1015.6
20220518130005 60 126 0.0 6.0 0.00 0.00 0.00 84 1015.5
20220518124500 60 132 0.0 4.0 0.00 0.00 0.00 84 1015.5
20220518123100 60 146 1.0 8.0 0.00 0.00 0.00 84 1015.4
20220518121600 60 126 1.0 9.0 0.00 0.00 0.00 84 1015.3